User: anonymous   Login
Location: Unspecified
(0.0000°N, 0.0000°E)
Time: 20:40:34
(UTC+00:00)
Language:

COSMOS 2484 - Orbit

View from above orbital plane
View from above orbital plane
View from above satellite
View from above satellite

Ground track
Ground track

The orbit data is extracted from the following two-line orbital elements,

1 39059U 13001C   17172.74726924 +.00000010 +00000-0 +00000-0 0  9991
2 39059 082.5026 102.7534 0025803 357.9682 002.1296 12.42887443200994
Epoch (UTC): 21 June 2017 17:56:04
Eccentricity: 0.0025803
inclination: 82.5026°
perigee height: 1474 km
apogee height: 1514 km
right ascension of ascending node: 102.7534°
argument of perigee: 357.9682°
revolutions per day: 12.42887443
mean anomaly at epoch: 2.1296°
orbit number at epoch: 20099

The dashed part of the orbit path shows where the satellite is in the earth's shadow,  

DLR